Location: Altenst�hlen
(53.5567°N, 8.9425°E)
Time: 03:13:21
(UTC+00:00)

STARLINK-79 - Pass Details

Date: 23 October 2019
Orbit: 548 x 552 km, 53.0° (Epoch: 13 November)

Event Time Altitude Azimuth Distance (km) Brightness Sun altitude
Rises 17:38:20 0° 275° (W) 2,719 9.1 -13.6°
Reaches altitude 10° 17:40:34 10° 274° (W) 1,825 7.7 -14.0°
Maximum altitude 17:44:43 80° 189° (S) 563 3.6 -14.6°
Enters shadow 17:46:58 26° 104° (ESE) 1,095 4.5 -14.9°
